Lid_Strength_Index
11 11 11 11 11 11 11 11 12 16 16 14 15 12 13 13 15 15 15 15 16 15 14 14 13 12 12 12 11 10 10 9 9 9 9 8 8 8
12 12 12 12 12 11 11 11 11 12 14 14 14 13 13 14 15 15 15 16 16 15 15 14 13 13 12 12 11 11 11 10 10 10 10 10 9 9
13 13 13 12 12 12 12 12 13 12 12 16 14 14 14 15 16 17 16 17 16 15 15 14 14 13 13 13 12 12 12 11 11 11 10 10 9 8
13 13 13 13 13 13 13 14 14 14 13 17 16 16 15 16 17 18 18 17 17 15 14 14 13 13 13 13 13 13 13 12 12 11 10 9 9 9
13 13 13 13 14 14 14 15 15 16 15 16 17 16 17 16 17 18 18 18 18 16 14 14 14 13 13 13 13 13 13 13 12 10 10 10 9 9
13 13 13 14 14 14 14 15 15 15 15 15 18 18 18 18 18 19 19 18 18 17 16 15 15 14 14 14 14 13 13 12 12 11 10 10 10 10
14 14 13 13 14 13 14 14 14 15 15 16 17 18 19 19 19 18 18 18 17 16 17 17 16 16 15 14 14 14 13 12 12 11 11 11 10 10
14 14 14 14 14 13 12 12 13 14 15 16 17 18 18 18 18 18 18 18 19 15 16 16 16 17 16 16 14 13 13 12 12 12 11 11 11 11
14 14 14 14 14 15 13 11 12 11 12 14 16 16 17 18 17 17 18 17 17 16 16 18 17 18 16 16 14 13 13 12 12 11 11 11 11 11
13 14 14 14 14 15 15 14 14 14 13 13 14 15 16 16 16 16 17 16 17 18 17 19 17 18 16 16 14 13 13 12 12 12 12 12 12 12
13 13 13 14 13 13 15 15 15 14 13 12 13 13 13 13 14 15 17 18 19 19 18 19 18 18 17 18 16 14 13 13 13 13 13 12 12 12
12 12 12 12 12 11 14 14 15 15 16 15 16 15 14 14 13 15 16 18 19 20 18 19 19 19 20 17 16 15 15 15 14 14 13 13 13 14
12 11 12 11 11 11 12 14 15 14 15 15 17 16 16 16 16 16 16 17 19 19 18 18 19 19 21 20 18 16 16 16 16 16 15 14 13 13
12 11 10 10 11 11 11 12 12 13 15 16 17 17 17 17 16 16 17 17 17 18 17 18 20 20 21 21 21 18 17 17 17 17 16 15 13 13
10 10 9 9 10 12 11 12 13 14 16 17 18 17 16 16 16 18 18 18 19 18 19 19 19 19 20 21 21 20 20 18 17 18 17 17 17 17
9 10 9 8 10 12 14 12 13 14 17 17 17 16 16 18 19 19 20 20 22 22 21 20 20 20 21 21 21 21 20 21 18 18 18 17 17 17
11 10 10 10 12 13 14 14 14 14 16 16 16 17 18 19 20 19 21 22 23 23 23 22 20 20 20 21 23 21 21 21 19 19 19 20 18 18
11 12 11 11 13 13 14 15 14 15 16 16 16 18 20 20 21 21 21 22 23 23 22 22 22 22 22 21 19 22 21 21 19 19 19 22 21 19
11 12 12 12 13 13 13 14 14 16 16 17 19 20 20 20 22 22 22 22 23 22 22 22 23 23 25 26 20 17 21 21 21 22 21 21 22 20
10 11 12 12 12 13 13 13 15 17 18 19 19 20 20 21 22 23 23 24 24 23 23 23 23 23 25 25 26 22 19 22 22 22 21 20 19 17
10 10 11 11 12 11 13 14 16 17 18 19 20 20 20 22 23 23 23 23 24 24 25 24 23 21 21 22 25 25 21 18 18 20 20 22 22 22
9 9 11 11 11 13 14 15 17 18 19 19 20 21 21 22 23 23 24 24 24 24 24 23 21 22 23 23 24 24 22 21 19 18 18 18 21 24
8 9 10 11 12 13 15 16 17 18 19 20 21 22 21 22 23 23 23 24 24 24 24 23 23 22 22 22 23 24 23 23 22 22 21 17 16 15